User: anonymous   Login
Location: Boston
(42.3580°N, 71.0600°W)
Time: 08:17:23
(UTC-04:00)
Language:

YUBILEINY - Orbit

View from above orbital plane
View from above orbital plane
View from above satellite
View from above satellite

Ground track
Ground track

The orbit data is extracted from the following two-line orbital elements,

1 32953U 08025A   19081.99747115  .00000020  00000-0  75656-4 0  9994
2 32953  82.5064 199.2847 0018053 323.0202  36.9630 12.43088214491417
Epoch (UTC): 22 March 2019 23:56:21
Eccentricity: 0.0018053
inclination: 82.5064°
perigee height: 1479 km
apogee height: 1508 km
right ascension of ascending node: 199.2847°
argument of perigee: 323.0202°
revolutions per day: 12.43088214
mean anomaly at epoch: 36.9630°
orbit number at epoch: 49141

The dashed part of the orbit path shows where the satellite is in the earth's shadow,  

DLR